DW9614 Weather Reports


Display with metric or nautical units.
time (UTC)temp
F
wind
direction
speed
MPH
gust
MPH
rain 1hr
in
rain 24hr
in
rain mn
in
humidity
%
barometer
mb
20260509234531 76 247 0.0 7.0 0.00 0.00 0.00 39 1006.3
20260509233024 76 301 3.0 8.0 0.00 0.00 0.00 38 1006.2
20260509231523 77 277 3.0 8.0 0.00 0.00 0.00 37 1006.2
20260509230023 77 288 4.0 10.0 0.00 0.00 0.00 39 1006.0
20260509224522 77 320 3.0 9.0 0.00 0.00 0.00 39 1006.0
20260509223021 77 260 4.0 10.0 0.00 0.00 0.00 39 1006.0
20260509221521 78 286 5.0 13.0 0.00 0.00 0.00 37 1006.0
20260509220026 78 245 4.0 12.0 0.00 0.00 0.00 38 1006.1
20260509214519 78 304 6.0 13.0 0.00 0.00 0.00 38 1006.0
20260509213018 79 293 5.0 13.0 0.00 0.00 0.00 35 1006.1
20260509211517 78 232 3.0 11.0 0.00 0.00 0.00 38 1006.0
20260509210015 79 288 5.0 13.0 0.00 0.00 0.00 38 1006.0
20260509204514 77 227 3.0 10.0 0.00 0.00 0.00 41 1005.9
20260509203012 77 270 3.0 12.0 0.00 0.00 0.00 46 1005.9
20260509201511 76 217 5.0 11.0 0.00 0.00 0.00 50 1006.1
20260509200011 75 212 5.0 11.0 0.00 0.00 0.00 52 1006.2
20260509194509 75 240 4.0 11.0 0.00 0.00 0.00 56 1006.2
20260509193008 74 273 6.0 12.0 0.00 0.00 0.00 56 1006.2
20260509191513 75 238 5.0 14.0 0.00 0.00 0.00 59 1006.3
20260509190013 72 202 9.0 16.0 0.00 0.01 0.00 62 1006.3
20260509184503 72 216 7.0 12.0 0.00 0.01 0.00 63 1006.4
20260509183002 73 233 6.0 12.0 0.00 0.01 0.00 64 1006.4
20260509181502 72 262 7.0 17.0 0.00 0.01 0.00 64 1006.5
20260509174557 70 198 9.0 17.0 0.00 0.01 0.00 69 1006.6
20260509173057 69 219 8.0 18.0 0.00 0.01 0.00 69 1006.4
20260509171555 69 189 8.0 17.0 0.00 0.01 0.00 70 1006.4
20260509170053 67 224 10.0 17.0 0.00 0.01 0.00 71 1006.3
20260509164551 66 207 8.0 14.0 0.00 0.01 0.00 74 1006.5
20260509163049 66 238 7.0 15.0 0.00 0.01 0.00 75 1006.7
20260509161547 64 229 8.0 16.0 0.00 0.01 0.00 77 1006.7
20260509160045 63 207 8.0 15.0 0.00 0.01 0.00 78 1006.6
20260509154545 61 205 8.0 17.0 0.00 0.01 0.00 81 1006.8
20260509153052 60 206 7.0 15.0 0.00 0.01 0.00 84 1006.5
20260509151539 59 188 4.0 12.0 0.00 0.01 0.00 84 1006.5
20260509150037 57 269 4.0 16.0 0.00 0.01 0.00 87 1006.7
20260509144535 57 208 6.0 14.0 0.00 0.01 0.00 87 1006.6
20260509143035 56 203 9.0 15.0 0.00 0.01 0.00 88 1006.7
20260509141535 57 199 9.0 17.0 0.00 0.01 0.00 87 1006.6
20260509140042 58 254 5.0 12.0 0.00 0.01 0.00 88 1006.5
20260509134536 58 209 7.0 17.0 0.00 0.01 0.00 87 1006.3
20260509133032 57 209 9.0 17.0 0.00 0.01 0.00 88 1006.3
20260509131535 57 250 5.0 10.0 0.00 0.01 0.00 89 1006.3
20260509130028 56 222 6.0 12.0 0.00 0.01 0.00 91 1006.5
20260509124525 55 211 5.0 10.0 0.00 0.01 0.00 93 1006.4
20260509123025 54 207 2.0 9.0 0.00 0.01 0.00 93 1006.6
20260509121525 53 221 6.0 10.0 0.00 0.01 0.00 93 1006.5
20260509120025 53 218 5.0 11.0 0.00 0.01 0.00 92 1006.6
20260509114520 53 223 5.0 11.0 0.00 0.01 0.00 92 1006.5
20260509113118 52 205 5.0 11.0 0.00 0.01 0.00 92 1006.5
20260509111516 52 218 4.0 8.0 0.00 0.01 0.00 92 1006.4
20260509110016 53 223 3.0 6.0 0.00 0.01 0.00 91 1006.2
20260509104514 52 209 2.0 8.0 0.00 0.01 0.00 91 1006.1
20260509103014 52 217 3.0 9.0 0.00 0.01 0.00 91 1005.8
20260509101515 52 220 2.0 6.0 0.00 0.01 0.00 92 1005.9
20260509100012 53 218 2.0 6.0 0.00 0.01 0.00 92 1005.9
20260509094511 53 216 3.0 9.0 0.00 0.01 0.00 91 1005.9
20260509093008 53 219 3.0 6.0 0.00 0.01 0.00 91 1006.1
20260509091506 53 219 1.0 5.0 0.00 0.01 0.00 92 1006.1
20260509090006 53 221 2.0 5.0 0.00 0.01 0.00 92 1006.2
20260509084508 54 221 2.0 6.0 0.00 0.01 0.00 92 1006.2
20260509083004 53 232 3.0 8.0 0.00 0.01 0.00 91 1006.1
20260509081501 54 208 4.0 7.0 0.00 0.01 0.00 91 1006.2
20260509080110 54 212 4.0 7.0 0.00 0.01 0.00 91 1006.3
20260509074600 54 210 3.0 8.0 0.00 0.01 0.00 91 1006.3
20260509073136 55 213 2.0 5.0 0.00 0.01 0.00 91 1006.3
20260509071555 55 213 5.0 11.0 0.00 0.01 0.00 90 1006.2
20260509070059 55 208 4.0 7.0 0.00 0.01 0.00 91 1006.3
20260509064551 55 207 2.0 6.0 0.00 0.01 0.00 91 1006.7
20260509063048 55 209 4.0 9.0 0.00 0.01 0.00 91 1006.9
20260509061555 54 211 4.0 7.0 0.00 0.01 0.00 91 1007.1
20260509060052 54 191 4.0 6.0 0.00 0.01 0.00 90 1007.2
20260509054548 54 193 3.0 7.0 0.00 0.01 0.00 90 1007.2
20260509053040 54 187 3.0 7.0 0.00 0.01 0.00 89 1007.2
20260509050035 54 217 0.0 1.0 0.00 0.01 0.01 88 1007.2
20260509044538 55 217 0.0 3.0 0.00 0.01 0.01 87 1007.1
20260509043037 55 217 0.0 4.0 0.00 0.01 0.01 86 1007.2
20260509041533 56 217 0.0 4.0 0.00 0.01 0.01 85 1007.1
20260509040036 56 217 0.0 4.0 0.00 0.01 0.01 85 1007.3
20260509034543 57 217 2.0 7.0 0.00 0.01 0.01 84 1007.5
20260509033032 57 302 0.0 6.0 0.00 0.01 0.01 84 1007.6
20260509031531 57 286 0.0 1.0 0.00 0.01 0.01 84 1007.7
20260509030030 57 290 0.0 4.0 0.00 0.01 0.01 84 1007.7
20260509024530 57 286 1.0 3.0 0.00 0.01 0.01 84 1007.6
20260509023029 57 279 1.0 7.0 0.00 0.01 0.01 85 1007.6
20260509021534 56 248 2.0 5.0 0.00 0.01 0.01 85 1007.6
20260509020028 57 211 2.0 7.0 0.00 0.01 0.01 85 1007.7
20260509014529 56 227 2.0 7.0 0.00 0.01 0.01 85 1007.6
20260509013028 56 215 2.0 8.0 0.00 0.01 0.01 85 1007.4
20260509011527 56 222 3.0 7.0 0.00 0.01 0.01 85 1007.3
20260509010034 57 232 2.0 4.0 0.00 0.01 0.01 83 1007.2
20260509004527 57 236 2.0 6.0 0.00 0.01 0.01 83 1007.1
20260509003024 57 217 0.0 7.0 0.00 0.01 0.01 83 1007.2
20260509001522 57 210 4.0 11.0 0.00 0.01 0.01 83 1007.5
20260509000022 57 227 8.0 15.0 0.00 0.01 0.01 83 1007.6